Regional Weather Roundup
Issued by NWS

Home | Current Version | Previous Version | Graphics & Text | Print | Product List | Glossary On
Versions: 1 2 3 4 5 6 7 8 9 10 11 12 13 14 15 16 17 18 19 20 21 22 23 24 25 26 27 28 29 30 31 32 33 34 35 36 37 38 39 40 41 42 43 44 45 46 47 48 49 50
000
ASUS43 KDTX 272210
RWRMI
MICHIGAN HOURLY REGIONAL WEATHER ROUNDUP
NATIONAL WEATHER SERVICE DETROIT/PONTIAC MI
600 PM EDT MON MAR 27 2017

NOTE: "FAIR" INDICATES FEW OR NO CLOUDS BELOW 12,000 FEET WITH NO
SIGNIFICANT WEATHER AND/OR OBSTRUCTION TO VISIBILITY.

MIZ047>049-052>055-059>063-066>070-074>076-081>083-272300-
SOUTHEAST LOWER MICHIGAN

CITY           SKY/WX    TMP DP  RH WIND       PRES   REMARKS
ADRIAN         CLOUDY    57  49  74 SW6       29.89F
ALMA           CLOUDY    50  43  79 W12       29.91S
ANN ARBOR      CLOUDY    58  49  72 SW5       29.88S
BAD AXE        CLOUDY    49  45  88 W3        29.90R
CARO           CLOUDY    52  47  82 W7        29.89S
DETROIT CITY   CLOUDY    59  50  72 SW9       29.88S
DETROIT        CLOUDY    60  49  66 SW10      29.89S
FLINT          CLOUDY    54  47  77 NW12      29.89S
GROSSE ILE     CLOUDY    46  43  92 S6        29.88F FOG
HILLSDALE      CLOUDY    57  46  67 SW5       29.87F
HOWELL         CLOUDY    56  46  69 W9        29.88S

CITY           SKY/WX    TMP DP  RH WIND       PRES   REMARKS
JACKSON        CLOUDY    56  47  71 NW6       29.88F
LAMBERTVILLE   MOSUNNY   60  49  67 W5        29.88F
LANSING        CLOUDY    54  46  74 W7        29.90S
LAPEER         CLOUDY    55  48  78 W5        29.88S
MASON          CLOUDY    55  49  81 W8        29.90S
MONROE         CLOUDY    59  52  77 SW5       29.88S
MT. CLEMENS    CLOUDY    60  50  69 W6        29.86S
PONTIAC        CLOUDY    58  48  69 NW6       29.87S
PORT HOPE        N/A     36  35  96 NE3       29.89S
PORT HURON     CLOUDY    57  46  67 SW3       29.89R
TRI CITIES     CLOUDY    50  44  80 W10       29.91R
MIDLAND        CLOUDY    50  41  71 W6        29.90S
TROY           CLOUDY    60  47  62 W6        29.89S
SAGINAW HB     CLOUDY    52  43  71 W10       29.90R
$$
MIZ043>046-050>051-056>058-064>065-071>073-077>080-272300-
SOUTHWEST LOWER MICHIGAN

CITY           SKY/WX    TMP DP  RH WIND       PRES   REMARKS
BATTLE CREEK   CLOUDY    53  48  83 NW8       29.89F
BENTON HARBOR  CLOUDY    43  37  79 N7        29.92R
BIG RAPIDS     CLOUDY    45  38  78 W6        29.91S
COLDWATER      CLOUDY    56  50  81 W8        29.89S
FREMONT        CLOUDY    47  40  76 W5        29.92F
HOLLAND        CLOUDY    44  38  79 NW8       29.93S
GRAND RAPIDS   CLOUDY    49  44  83 W7        29.91S
IONIA          CLOUDY    51  42  72 W8        29.90S
KALAMAZOO      CLOUDY    54  46  74 NW6       29.90F
LUDINGTON      CLOUDY    38  36  91 NW7       29.95R WCI  33
MARSHALL       CLOUDY    56  49  77 NW3       29.88F
MOUNT PLEASANT CLOUDY    48  42  78 W5        29.90S
MUSKEGON       CLOUDY    45  37  73 NW8       29.94S
SOUTH HAVEN    CLOUDY    43  39  85 CALM      29.93R
$$
MIZ016>042-272300-
NORTHERN LOWER MICHIGAN

CITY           SKY/WX    TMP DP  RH WIND       PRES   REMARKS
ALPENA         CLOUDY    41  38  89 NW10      29.91R
BEAVER ISLAND  CLOUDY    39  35  87 NW7       29.95S WCI  34
BELLAIRE       CLOUDY    38  34  84 N5        29.95S WCI  35
CADILLAC       CLOUDY    41  38  89 NW7       29.91S
CHARLEVOIX     CLOUDY    38  37  97 NW6       29.97S WCI  33
FRANKFORT      CLOUDY    37  34  87 N6        29.96S WCI  33
GAYLORD        CLOUDY    37  33  85 VRB3      29.91R FOG
GRAYLING       CLOUDY    41  36  81 NW9       29.92R
HARBOR SPRINGS CLOUDY    34  34 100 W3        29.94S
HOUGHTON LAKE  CLOUDY    42  37  82 W7        29.91R
MANISTEE       CLOUDY    38  35  89 NW8       29.95S WCI  32
OSCODA         CLOUDY    38  37  97 CALM      29.90R FOG
PELLSTON       CLOUDY    38  34  85 NW8       29.93S WCI  32
ROGERS CITY    CLOUDY    40  36  84 NW7       29.92S
TRAVERSE CITY  CLOUDY    39  36  89 NE5       29.95R
$$
MIZ007>008-015-272300-
EASTERN UPPER MICHIGAN

CITY           SKY/WX    TMP DP  RH WIND       PRES   REMARKS
KINROSS        LGT RAIN  36  34  92 NW9       29.92S WCI  29
MACKINAC ISLAN LGT RAIN  36  36 100 NW3       29.92S
NEWBERRY       CLOUDY    35  34  96 NW8       29.94R WCI  28
S. S. MARIE    CLOUDY    36  32  85 NW8       29.92R WCI  30
MUNISING         N/A     33  33 100 NW7       29.97R WCI  27
$$
MIZ004>006-011>014-085-272300-
CENTRAL UPPER MICHIGAN

CITY           SKY/WX    TMP DP  RH WIND       PRES   REMARKS
MANISTIQUE     CLOUDY    36  36 100 N6        29.95S WCI  31
ESCANABA       CLOUDY    43  36  76 N6        29.96S
MENOMINEE        N/A    N/A N/A N/A MISG        N/A
SAWYER-GWINN   CLOUDY    37  34  87 N7        29.95S WCI  32
$$
MIZ001>003-009>011-084-272300-
WESTERN UPPER MICHIGAN

CITY           SKY/WX    TMP DP  RH WIND       PRES   REMARKS
IRON MOUNTAIN  CLOUDY    42  34  73 NW9       29.95R
HOUGHTON       CLOUDY    38  31  76 W8        29.96S WCI  32
COPPER HARBOR    N/A     36  33  89 N10       29.97S WCI  28
IRONWOOD       CLOUDY    48  29  47 N6        29.97S
$$

ABBREVIATIONS USED IN REMARKS
   TC - TEMPERATURE IN CELSIUS
  WCI - WIND CHILL INDEX
   HX - HEAT INDEX
  VSB - VISIBILITY




USA.gov is the U.S. government's official web portal to all federal, state and local government web resources and services.